#timestamp,LO_Frequency,Hit,StdDev 
1596261615.8,286046994.1,N
1596261635.6,286046992.2,N
1596261655.5,286046994.6,N
1596261675.3,286046994.8,N
1596261695.1,286046994.6,N
1596261715.9,286046995.8,N
1596261735.7,286047002.2,N
1596261755.5,286047001.6,N
1596261775.4,286047000.1,N
1596261795.2,286047000.1,N
1596261815.1,286046998.4,N
1596261816.0,286046998.4,N
1596261835.8,286046998.5,N
1596261855.6,286046999.4,N
1596261875.5,286046999.0,N
1596261895.3,286046996.6,N
1596261915.2,286046997.1,N
1596261935.9,286046997.5,N
1596261955.7,286046997.5,N
1596261975.6,286046997.3,N
1596261995.4,286046997.8,N
1596262015.2,286046995.1,N
1596262035.1,286046994.9,N
1596262036.0,286046994.9,N
1596262055.8,286046995.0,N
1596262075.7,286046995.4,N
1596262095.5,286046996.1,N
1596262115.3,286046996.4,N
1596262135.2,286046995.9,N
1596262155.0,286046995.3,N
1596262155.9,286046995.3,N
1596262175.8,286046995.2,N
1596262195.6,286046995.5,N
1596262215.4,286046995.1,N
1596262235.3,286046995.0,N
1596262255.1,286046995.2,N
1596262275.8,286046994.0,N
1596262295.7,286046993.7,Y
1596262315.5,286046998.9,P
1596262335.4,286046998.3,N
1596262355.2,286046998.3,N
1596262375.0,286047000.7,N
1596262375.9,286047000.7,N
1596262395.8,286046998.6,N
1596262415.6,286047000.4,N
1596262435.5,286047000.5,N
1596262455.3,286046998.1,N
1596262475.1,286046998.1,N
1596262495.9,286047000.9,N
1596262515.7,286047004.4,Y
1596262535.6,286047002.3,P
1596262555.4,286047001.0,N
1596262575.2,286047000.5,N
1596262595.1,286047002.8,N
1596262596.0,286047002.8,N
1596262615.8,286047000.3,N
1596262635.6,286047000.1,N
1596262655.5,286047000.6,N
1596262675.3,286047001.9,N
1596262695.2,286047001.3,N
1596262715.0,286047002.6,N
1596262715.9,286047002.6,N
1596262735.8,286047000.6,N
1596262755.6,286046998.6,N
1596262775.4,286046999.2,N
1596262795.3,286046999.5,N
1596262815.1,286046996.8,N
1596262835.9,286046998.8,N
1596262855.7,286046998.8,N
1596262875.5,286046996.6,N
1596262895.4,286046997.6,N
1596262915.2,286046997.6,N
1596262935.0,286046997.6,N
1596262935.9,286046997.6,N
1596262955.8,286046996.2,N
1596262975.6,286046997.5,N
1596262995.5,286046999.3,N
1596263015.3,286046997.2,N
1596263035.2,286046995.0,N
1596263055.9,286046994.9,N
1596263075.7,286046994.2,N
1596263095.6,286046993.5,N
1596263115.4,286046993.4,N
1596263135.2,286046993.7,N
1596263155.1,286046995.9,N
1596263156.0,286046995.9,N
1596263175.8,286046993.7,N
1596263195.7,286046993.8,N
1596263215.5,286046996.0,N
1596263235.3,286046995.7,N
1596263255.2,286046995.0,N
1596263275.0,286046995.3,N
1596263275.9,286046995.3,N
1596263295.8,286046995.0,N
1596263315.6,286046997.3,N
1596263335.4,286047001.9,N
1596263355.3,286047004.4,N
1596263375.1,286047002.6,N
1596263395.9,286047002.1,N
1596263415.7,286047000.0,N
1596263435.5,286047001.0,N
1596263455.4,286046998.2,N
1596263475.2,286046998.8,N
1596263495.0,286046998.8,N
1596263495.9,286046998.8,N
1596263515.8,286046999.1,N
1596263535.6,286046999.4,N
1596263555.5,286046999.6,N
1596263575.3,286046999.6,N
1596263595.1,286046999.3,N
1596263615.9,286046996.6,N
1596263635.7,286046999.1,N
1596263655.6,286046998.8,N
1596263675.4,286046998.9,N
1596263695.2,286046998.6,N
1596263715.1,286046999.2,N
1596263716.0,286046999.2,N
1596263735.8,286046999.6,N
1596263755.6,286046997.1,N
1596263775.5,286046996.9,N
1596263795.3,286046998.7,N
1596263815.2,286046998.8,N
1596263835.9,286046998.9,N
1596263855.7,286046999.1,N
1596263875.6,286046996.5,N
1596263895.4,286046996.5,N
1596263915.6,286047001.1,N
1596263935.4,286046998.3,N
1596263955.3,286046998.7,N
1596263975.1,286046998.3,N
1596263995.8,286046998.9,N
1596264015.7,286046999.0,N
1596264035.5,286046998.2,N
1596264055.4,286046999.3,N
1596264075.2,286046999.1,N
1596264095.0,286046998.9,N
1596264095.9,286046998.9,N
1596264115.8,286046998.8,N
1596264135.6,286046998.1,N
1596264155.5,286047000.8,N
1596264175.3,286046998.5,N
1596264195.1,286046998.3,N
1596264215.9,286046999.0,N
1596264235.7,286046998.7,N
1596264255.5,286046998.5,N
1596264275.4,286046998.3,N
1596264295.2,286047001.1,N
1596264315.1,286046999.3,N
1596264316.0,286046999.3,N
1596264335.8,286047001.0,N
1596264355.6,286046998.9,N
1596264375.5,286046996.6,Y
1596264395.3,286046998.1,P
1596264415.2,286046998.4,P
1596264435.9,286047001.1,P
1596264455.7,286047000.7,N
1596264475.6,286046998.7,N
1596264495.4,286046996.5,Y
1596264515.3,286047001.0,P
1596264535.1,286046999.5,N
1596264536.0,286046999.5,N
1596264555.8,286046999.4,N
1596264575.7,286046998.4,N
1596264595.5,286046999.3,N
1596264615.3,286046996.5,Y
1596264635.2,286046999.5,P
1596264655.0,286046996.9,P
1596264655.9,286046996.9,N
1596264675.8,286046996.7,N
1596264695.6,286046997.3,N
1596264715.4,286046996.9,N
1596264735.3,286046999.5,N
1596264755.1,286046999.4,N
1596264775.9,286046999.0,N
1596264795.7,286046997.3,N
1596264815.5,286046997.9,N
1596264835.4,286046995.1,Y
1596264855.2,286046997.0,P
1596264875.0,286046997.0,P
1596264876.0,286046997.0,P
1596264895.8,286046997.1,Y
1596264915.6,286047000.9,P
1596264935.5,286046998.3,N
1596264955.3,286046998.5,N
1596264975.1,286046998.4,N
1596264995.9,286047000.7,N
1596265015.7,286046999.1,N
1596265035.6,286046999.4,N
1596265055.4,286047001.2,N
1596265075.2,286046998.8,N
1596265095.1,286046997.1,N
1596265096.0,286046997.1,N
1596265115.8,286046999.4,N
1596265135.7,286046998.2,N
1596265155.5,286046999.0,N
1596265175.3,286046998.7,N
1596265195.2,286046999.6,N
